Powrót do katalogu

QIANFAN-99

AktywnyŁącznośćPO
NORAD 66041·PAYLOAD·🇨🇳 China

Wystrzelony Oct 17, 2025 z Taiyuan Satellite Launch Center

Loading…

Następne Przeloty (najbliższe 24 godziny)

TLE

ŚwieżeSource: Space-Track

Epoka: Sep 14, 2026, 08:05 UTC

1 66041U 25233J   26257.33712505  .00000085  00000-0  11364-3 0  9991
2 66041  89.0052  34.1814 0001458 100.8097 259.3219 13.51035031 45223

Śledź QIANFAN-99 w czasie rzeczywistym z AllMySat

Download on the App Store